STARLINK-30972 (58721 NORAD) Tracking and Keplerian Element Data

This shows tracking and keplerian element data for the satellite.

Feedback or suggestion? Click here.




ElementValue
Catalog58721
NameSTARLINK-30972
Epoch Orbit277
Epoch Day13.25002315
Epoch Year2024
RAAN198.7701
Inclination53.1607
Eccentricity8.93E-05
Argument of Perigee88.5178
Mean Anonmoly154.6327
Mean Motion15.51430355
Decay Rate-0.01743663
L11 58721U 24002S 24013.25002315 -.01743663 00000+0 -32632-1 0 9997
L22 58721 53.1607 198.7701 0000893 88.5178 154.6327 15.51430355 2773



Live tracking and technical data element details for STARLINK-30972 (NORAD 58721). STARLINK-30972 can be tracked NOW for your location showing map with azimuth and elevation plus other details from your city location.







IsCatalogInMostPopularTable: catalog: 58721, numindb: 27
Update: records affected: 1



GetName: 58721 STARLINK-30972

Hit Count: updated at: Wed, 17 Apr 2024 03:38:47 GMT